Location: Cisewo
(53.3833°N, 14.9000°E)
Time: 14:05:03
(UTC+00:00)

Cosmos 407 Rocket - Pass Details

Date: 18 April 2021
Orbit: 743 x 787 km, 74.0° (Epoch: 16 May)

Event Time Altitude Azimuth Distance (km) Brightness Sun altitude
Exits shadow 20:53:36 - 215° (SW) 2,409 5.9 -20.1°
Reaches altitude 10° 20:53:59 10° 215° (SW) 2,260 5.7 -20.1°
Maximum altitude 20:59:05 68° 299° (WNW) 810 3.7 -20.6°
Drops below altitude 10° 21:04:16 10° 23° (NNE) 2,297 6.4 -21.0°
Sets 21:06:41 0° 26° (NNE) 3,233 7.2 -21.1°
